Location: Unspecified
(0.0000°N, 0.0000°E)
Time: 14:36:24
(UTC+00:00)

COSMOS 1275 DEB - Pass Details

Date: 14 February 2026
Orbit: 902 x 1038 km, 83.0° (Epoch: 19 November)

Event Time Altitude Azimuth Distance (km) Brightness Sun altitude
Rises 04:11:02 0° 149° (SSE) 3,743 ? -29.9°
Reaches altitude 10° 04:14:48 10° 128° (SE) 2,775 ? -29.0°
Maximum altitude 04:18:20 15° 94° (E) 2,379 ? -28.1°
Drops below altitude 10° 04:21:49 10° 59° (ENE) 2,731 ? -27.3°
Sets 04:25:26 0° 38° (NE) 3,651 ? -26.4°
